Choose a state:
Most recent flow and stage for Massachusetts
(Stations highlighted in red are currently above flood stage)
USGS
station
ID
USGS station name NWS
flood
stage
(ft)
Most recent
stage
(ft)
Most recent
flow
(cfs)
Historical
peaks
(cfs)
Most recent
local
date/time
NWS
station
ID
01094400 NORTH NASHUA RIVER AT FITCHBURG, MA 6.5 3.16 149 3,930 2024-05-19 11:30:00 FBGM3
01094500 NORTH NASHUA RIVER NEAR LEOMINSTER, MA   3.31 293 16,300 2024-05-19 11:15:00  
01095220 STILLWATER RIVER NEAR STERLING, MA   5.24 101 1,850 2024-05-19 11:30:00  
01095375 QUINAPOXET RIVER AT CANADA MILLS NEAR HOLDEN, MA   8.01 122 2,190 2024-05-19 11:30:00  
01095434 GATES BROOK NEAR WEST BOYLSTON, MA   1.47 7.96 207 2024-05-19 11:20:00  
01095503 NASHUA RIVER, WATER STREET BRIDGE, AT CLINTON, MA   3.73 313 597 2024-05-19 11:00:00  
01096000 SQUANNACOOK RIVER NEAR WEST GROTON, MA 7 2.75 131 4,820 2024-05-19 11:00:00 WGTM3
01096500 NASHUA RIVER AT EAST PEPPERELL, MA 8 3.14 974 20,900 2024-05-19 11:30:00 DNSM3
01097000 ASSABET RIVER AT MAYNARD, MA 5 3.22 384 4,250 2024-05-19 11:15:00 MAYM3
01097300 NASHOBA BROOK NEAR ACTON, MA   3.97 22.8 679 2024-05-19 10:45:00  
01098499 LAKE COCHITUATE AT FRAMINGHAM, MA   8.45

 

  2024-05-19 10:45:00  
01098500 COCHITUATE BK BL LAKE COCHITUATE AT FRAMINGHAM, MA   4.78 43.8 230 2024-05-19 11:30:00  
01098530 SUDBURY RIVER AT SAXONVILLE, MA 10 6.85 290 2,570 2024-05-19 11:15:00 SAXM3
01099500 CONCORD R BELOW R MEADOW BROOK, AT LOWELL, MA 8 5.71 866 5,840 2024-05-19 11:30:00 LCNM3
01100000 MERRIMACK RIVER BL CONCORD RIVER AT LOWELL, MA 52 44.11 7,900 173,000 2024-05-19 11:30:00 LOWM3
01100500 MERRIMACK RIVER AT LAWRENCE, MA 24 11.94

 

174,000 2024-05-19 11:30:00 LAWM3
01100568 SHAWSHEEN RIVER AT HANSCOM FIELD NEAR BEDFORD, MA 6 0.79 3.12 794 2024-05-19 10:45:00 HSCM3
01100571 SHAWSHEEN RIVER AT GREAT RD AT BEDFORD, MA   9.14

 

  2024-05-19 11:15:00  
0110057120 ELM BROOK AT ROUTE 2A NEAR LINCOLN, MA   9.16 0.94   2024-05-19 11:30:00  
0110057380 HARTWELL BROOK AT BEDFORD, MA   7.92

 

  2024-05-19 11:15:00  
01100574 ELM BROOK AT BEDFORD, MA   8.08

 

  2024-05-19 11:00:00  
01100580 SPRING BROOK NEAR BEDFORD, MA   9.68 3.43   2024-05-19 11:30:00  
01100600 SHAWSHEEN RIVER NEAR WILMINGTON, MA 7 2.83 74.3 1,880 2024-05-19 11:30:00 WLMM3
01100627 SHAWSHEEN RIVER AT BALMORAL STREET AT ANDOVER, MA 29 24.65 123 3,050 2024-05-19 11:45:00 ANDM3
01100693 MERRIMACK R 0.3 MILES U.S.RT 125 AT HAVERHILL,MA 13 5.93

 

  2024-05-19 11:00:00 HVRM3
011006988 MERRIMACK RIVER AT BATES BRIDGE NEAR HAVERHILL, MA  

 

11,500   2024-05-19 11:48:00  
01100870 MERRIMACK RIVER AT NEWBURYPORT, MA   3.55

 

  2024-05-19 11:00:00  
01101000 PARKER RIVER AT BYFIELD, MA   1.99 29.3 883 2024-05-19 11:30:00  
01101500 IPSWICH RIVER AT SOUTH MIDDLETON, MA   2.80 81.4 1,330 2024-05-19 11:30:00  
01102000 IPSWICH RIVER NEAR IPSWICH, MA 7 3.68 144 4,600 2024-05-19 11:00:00 IPSM3
01102345 SAUGUS RIVER AT SAUGUS IRONWORKS AT SAUGUS, MA   2.03 20.2 1,420 2024-05-19 11:00:00  
01102500 ABERJONA RIVER AT WINCHESTER, MA   7.50 27.8 1,590 2024-05-19 11:00:00 WCHM3
01103025 ALEWIFE BROOK NEAR ARLINGTON, MA   2.06 10.6 233 2024-05-19 10:45:00  
01103050 MYSTIC R AT AMELIA EARHART DAM NR SOMERVILLE, MA   105.84

 

  2024-05-19 11:30:00  
01103280 CHARLES RIVER AT MEDWAY, MA 5 1.88 205 1,820 2024-05-19 10:45:00 MEDM3
01103455 TROUT BROOK AT DOVER, MA   1.83 8.51 61.0 2024-05-19 11:00:00  
01103500 CHARLES RIVER AT DOVER, MA 5 2.04 364 3,220 2024-05-19 10:45:00 DOVM3
01104000 MOTHER BROOK AT DEDHAM, MA   81.34 90.0 1,040 2024-05-19 11:15:00 DDHM3
01104200 CHARLES RIVER AT WELLESLEY, MA   3.67 370 2,410 2024-05-19 11:35:00 WELM3
01104370 STONY BROOK AT VILES STREET, NEAR WESTON, MA   1.11 13.3 197 2024-05-19 11:40:00  
01104405 HOBBS BROOK AT MILL ST NR LINCOLN, MA   2.16

 

71.0 2024-05-19 11:40:00  
01104410 CAMBRIDGE RES., UNNAMED TRIB 1, NR LEXINGTON, MA   0.66

 

34.0 2024-05-19 11:30:00  
01104415 CAMBRIDGE RES., UNNAMED TRIB 2, NR LEXINGTON, MA   0.70 0.29 96.4 2024-05-19 11:30:00  
01104420 CAMBRIDGE RES., UNNAMED TRIB 3, NR LEXINGTON, MA   1.34 0.93 82.1 2024-05-19 11:30:00  
01104425 HOBBS BRK AT TRAPELO RD AT LINCOLN, MA   182.50

 

  2024-05-19 11:45:00  
01104430 HOBBS BK BELOW CAMBRIDGE RES NR KENDALL GREEN, MA   0.84 7.03 275 2024-05-19 11:40:00  
01104455 STONY BROOK, UNNAMED TRIBUTARY 1, NEAR WALTHAM, MA   3.32 0.60 176 2024-05-19 11:40:00  
01104460 STONY BROOK AT RT 20 AT WALTHAM, MA   5.43 31.5 1,240 2024-05-19 11:40:00  
01104475 STONY BROOK RES., UNNAMED TRIB 1, NEAR WESTON, MA   0.52 0.94 45.0 2024-05-19 11:30:00  
01104480 STONY BROOK RESERVOIR AT DAM NEAR WALTHAM, MA   1.18 16.6 1,140 2024-05-19 11:40:00  
01104500 CHARLES RIVER AT WALTHAM, MA 5 2.04 368 4,270 2024-05-19 11:30:00 WLTM3
01104501 BEAVER BROOK, LINDEN STREET, AT WALTHAM, MA   2.42 10.9 346 2024-05-19 11:00:00  
01104683 MUDDY RIVER AT BROOKLINE, MA 15 7.37

 

  2024-05-19 11:30:00 MUDM3
01104705 CHARLES RIVER AT FIRST ST AT CAMBRIDGE, MA   107.34

 

  2024-05-19 11:00:00  
01104715 CHARLES RIVER, NEW CHARLES RIVER DAM AT BOSTON, MA   107.36

 

  2024-05-19 11:48:00  
01105000 NEPONSET RIVER AT NORWOOD, MA 9 6.40 69.4 1,490 2024-05-19 11:00:00 NRWM3
01105500 EAST BRANCH NEPONSET RIVER AT CANTON, MA   1.69 65.7 1,790 2024-05-19 11:10:00 CANM3
011055525 PONKAPOAG BRK UPSTREAM RT 138,NR CANTON, MA   17.79 5.43 42.7 2024-05-19 11:30:00  
01105554 NEPONSET RIVER AT GREENLODGE ST NEAR CANTON, MA   9.84 247 1,700 2024-05-19 11:30:00  
011055566 NEPONSET RIVER AT MILTON VILLAGE, MA   2.39 392 3,190 2024-05-19 10:45:00 MLTM3
01105583 MONATIQUOT RIVER AT EAST BRAINTREE, MA   2.42 73.7 1,600 2024-05-19 11:00:00  
01105584 TOWN BROOK AT DIVERSION TUNNEL AT QUINCY, MA   16.82

 

  2024-05-19 11:00:00  
01105585 TOWN BROOK AT QUINCY, MA   2.06 10.9 513 2024-05-19 11:48:00  
01105600 OLD SWAMP RIVER NEAR SOUTH WEYMOUTH, MA   3.50 45.3 590 2024-05-19 11:00:00  
01105606 WHITMANS POND, WHITMANS POND DAM AT E. WEYMOUTH,MA   73.02 48.8 811 2024-05-19 11:15:00  
01105607 WHITMANS POND FLOOD BY-PASS AT EAST WEYMOUTH, MA   65.98

 

580 2024-05-19 11:00:00  
01105608 WHITMANS POND FISH LADDER AT EAST WEYMOUTH, MA   31.75 11.6 94.0 2024-05-19 10:45:00  
01105638 WEIR RIVER AT LEAVITT STREET AT HINGHAM, MA   3.16 75.9 475 2024-05-19 11:30:00  
01105730 INDIAN HEAD RIVER AT HANOVER, MA   3.23 197 1,520 2024-05-19 11:30:00  
01105870 JONES RIVER AT KINGSTON, MA   3.94 123 575 2024-05-19 11:15:00  
01105876 EEL RIVER AT RT 3A NEAR PLYMOUTH, MA   4.61

 

190 2024-05-19 11:00:00  
01105880 HERRING RIVER AT NORTH HARWICH, MA   2.32 16.4 80.3 2024-05-19 10:45:00  
0110588332 MARSTONS MILLS RV, DS OUT. OF BOG, MARS. MILLS, MA   1.80 7.38   2024-05-19 11:15:00  
0110588364 QUASHNET R. 0.6 MI DS OF JOHNS POND NR MASHPEE, MA   28.54 13.6   2024-05-19 11:15:00  
011058837 QUASHNET RIVER AT WAQUOIT VILLAGE, MA   2.55 30.2 83.0 2024-05-19 11:15:00  
01105917 MATTAPOISETT RIVER NEAR MATTAPOISETT, MA   5.04 99.8 910 2024-05-19 11:30:00  
01105933 PASKAMANSET RIVER NEAR SOUTH DARTMOUTH, MA   11.77 238 792 2024-05-19 11:15:00  
01108000 TAUNTON RIVER NEAR BRIDGEWATER, MA 8 5.45 975 5,480 2024-05-19 10:45:00 BDGM3
01108410 MILL RIVER AT SPRING STREET AT TAUNTON, MA 8.5 5.26 184 1,310 2024-05-19 11:00:00 TNMM3
01109000 WADING RIVER NEAR NORTON, MA 9.5 6.72 153 1,570 2024-05-19 11:15:00 NORM3
01109060 THREEMILE RIVER AT NORTH DIGHTON, MA   4.08 296 2,870 2024-05-19 11:15:00  
01109070 SEGREGANSET RIVER NEAR DIGHTON, MA 5 2.39 35.1 1,010 2024-05-19 10:45:00 DIGM3
01109730 BLACKSTONE RIVER, W. MAIN ST., AT MILLBURY, MA   3.57 649 5,960 2024-05-19 11:00:00  
01110000 QUINSIGAMOND RIVER AT NORTH GRAFTON, MA   2.21 138 820 2024-05-19 11:00:00  
01110500 BLACKSTONE RIVER AT NORTHBRIDGE, MA 9 6.18 1,030 16,900 2024-05-19 11:30:00 NBRM3
01111212 BLACKSTONE RIVER, RT 122 BRIDGE NEAR UXBRIDGE, MA   11.15 1,710 7,280 2024-05-19 11:00:00  
01123360 QUINEBAUG R BL E BRIMFIELD DAM AT FISKDALE, MA   4.03 196 15,400 2024-05-19 11:30:00  
01123600 QUINEBAUG R BL WESTVILLE DAM NR SOUTHBRIDGE, MA   4.93 477 1,850 2024-05-19 11:30:00  
01161280 CONNECTICUT RIVER NEAR NORTHFIELD, MA   11.68 14,300 111,000 2024-05-19 11:05:00  
01162000 MILLERS RIVER NEAR WINCHENDON, MA   4.48 94.5 8,500 2024-05-19 11:15:00  
01162500 PRIEST BROOK NEAR WINCHENDON, MA   2.77 17.9 3,000 2024-05-19 10:45:00  
01163200 OTTER RIVER AT OTTER RIVER, MA   1.39 80.0 971 2024-05-19 11:15:00  
01166500 MILLERS RIVER AT ERVING, MA   2.99 573 29,000 2024-05-19 11:00:00  
01168250 COLD RIVER AT FLORIDA, MA   3.74 12.3 1,110 2024-05-19 11:30:00  
01168500 DEERFIELD RIVER AT CHARLEMONT, MA 10 2.21 309 56,300 2024-05-19 11:30:00 CLMM3
01169000 NORTH RIVER AT SHATTUCKVILLE, MA 9 2.21 96.4 30,300 2024-05-19 11:30:00 SHVM3
01169900 SOUTH RIVER NEAR CONWAY, MA   1.87 28.9 9,300 2024-05-19 11:00:00  
01170000 DEERFIELD RIVER NEAR WEST DEERFIELD, MA 9 2.31 357 89,800 2024-05-19 11:30:00 WDEM3
01170100 GREEN RIVER NEAR COLRAIN, MA 7 3.15 58.8 13,200 2024-05-19 11:00:00 CRNM3
01170500 CONNECTICUT RIVER AT MONTAGUE CITY, MA 28 11.76 13,700 236,000 2024-05-19 11:30:00 MNTM3
01171000 AVERY BROOK NR WHATELY, MA   4.19 2.89   2024-05-19 11:00:00  
01171100 WEST BROOK NR WHATELY, MA   17.79 14.9 19.21 2024-05-19 11:00:00  
01171500 MILL RIVER AT NORTHAMPTON, MA 11 6.16 67.8 7,020 2024-05-19 11:00:00 NMIM3
01172010 CONNECTICUT R AT I-391 BRIDGE AT HOLYOKE, MA 26.5 9.84 16,900 107,000 2024-05-19 11:30:00 HLYM3
01172500 WARE RIVER NEAR BARRE, MA   3.49 114 1,890 2024-05-19 10:45:00  
01173000 WARE RIVER AT INTAKE WORKS NEAR BARRE, MA   4.80 223 14,000 2024-05-19 11:15:00  
01173500 WARE RIVER AT GIBBS CROSSING, MA   3.02 363 22,700 2024-05-19 11:30:00  
01174500 EAST BRANCH SWIFT RIVER NEAR HARDWICK, MA   19.69 115 6,780 2024-05-19 11:30:00  
01174565 WEST BRANCH SWIFT RIVER NEAR SHUTESBURY, MA   1.51 16.0 1,520 2024-05-19 11:00:00  
01175500 SWIFT RIVER AT WEST WARE, MA   4.02 332 7,590 2024-05-19 11:15:00  
01175670 SEVENMILE RIVER NEAR SPENCER, MA   9.82 26.4 905 2024-05-19 11:30:00  
01176000 QUABOAG RIVER AT WEST BRIMFIELD, MA   3.86 287 12,800 2024-05-19 11:00:00  
01177000 CHICOPEE RIVER AT INDIAN ORCHARD, MA 12 5.91 1,370 45,200 2024-05-19 11:30:00 INDM3
01179500 WESTFIELD RIVER AT KNIGHTVILLE, MA   3.43 182 37,900 2024-05-19 11:30:00  
01181000 WEST BRANCH WESTFIELD RIVER AT HUNTINGTON, MA 9 3.96 116 32,400 2024-05-19 11:30:00 HNTM3
01183500 WESTFIELD RIVER NEAR WESTFIELD, MA 13 4.69 763 70,300 2024-05-19 11:30:00 WSFM3
01185500 WEST BRANCH FARMINGTON RIVER NEAR NEW BOSTON, MA 8 3.32 167 34,300 2024-05-19 11:30:00 NBSM3
01197000 EAST BRANCH HOUSATONIC RIVER AT COLTSVILLE, MA 5 1.02 58.1 6,410 2024-05-19 11:30:00 CTVM3
01197145 HOUSATONIC RIVER AT LENOXDALE, MA   10.30 230 2,350 2024-05-19 11:30:00  
01197500 HOUSATONIC RIVER NEAR GREAT BARRINGTON, MA 9 2.52 402 12,200 2024-05-19 11:30:00 GTBM3
01198000 GREEN RIVER NEAR GREAT BARRINGTON, MA   0.90 45.1 9,220 2024-05-19 11:30:00  
01198125 HOUSATONIC RIVER NEAR ASHLEY FALLS, MA   3.78 675 10,100 2024-05-19 11:15:00  
01331500 HOOSIC RIVER AT ADAMS, MA   5.98 61.4 5,080 2024-05-19 10:45:00  
01332500 HOOSIC RIVER NEAR WILLIAMSTOWN, MA 9 5.63 186 14,900 2024-05-19 11:00:00 WILM3
01333000 GREEN RIVER AT WILLIAMSTOWN, MA   1.93 43.1 4,140 2024-05-19 11:15:00  
413601070275800 POPPONESSET BAY, MASHPEE NECK RD, NEAR MASHPEE, MA   1.36

 

  2024-05-19 11:00:00  
413758070320501 ASHUMET POND, FALMOUTH, MA   46.08

 

  2024-05-19 11:15:00  
414507070091400 SESUIT HARBOR TIDE GAGE AT DENNIS, MA   2.92

 

  2024-05-19 11:00:00  
420259070105600 PROVINCETOWN TIDE GAGE, PROVINCETOWN, MA   2.33

 

  2024-05-19 11:30:00  
420717071221301 KINGSBURY POND NEAR NORFOLK, MA   136.28

 

  2024-05-19 11:15:00  
421650071120401 MA-HWY-I95S-HMA-STATION 00567 NEEDHAM, MA  

 

0.000   2024-05-19 06:00:00  
421652071120601 MA-HWY-I95S-OGFC-STATION 00568 NEEDHAM, MA  

 

0.000   2024-05-19 06:00:00  
422302071083801 FRESH POND IN GATE HOUSE AT CAMBRIDGE, MA   15.55

 

  2024-05-19 11:45:00